Location: Beetenbrück
(52.8113°N, 9.5946°E)
Time: 21:04:48
(UTC+00:00)

Meteor 2-21 Rocket - Pass Details

Date: 14 April 2026
Orbit: 936 x 967 km, 82.5° (Epoch: 12 May)

Event Time Altitude Azimuth Distance (km) Brightness Sun altitude
Rises 20:12:59 0° 349° (NNW) 3,621 8.4 -15.7°
Reaches altitude 10° 20:15:29 10° 350° (N) 2,676 7.6 -16.0°
Maximum altitude 20:21:37 80° 79° (ENE) 971 4.4 -16.7°
Enters shadow 20:25:47 22° 164° (SSE) 1,952 5.6 -17.2°
